www.pogodaiklimat.ru

Погода и климат >> Архив погоды >> Норвегия >> Хойдалсмо


ПОГОДА в Хойдалсмо

  • Прогноз погоды в Хойдалсмо
  • Монитор погоды в Хойдалсмо

АРХИВ ПОГОДЫ в Хойдалсмо

Время (UTC), дата Ветер
(напр.,м/с)
 
Видим.   Явления Облачность Т
(С)
Тd
(С)
f
(%)
Тe
(С)
Тes
(С)
Комфортность P
(гПа)
Po
(гПа)
Тmin
(С)
Tmax
(С)
R
(мм)
R24
(мм)
S
(см)
10 14.08 СЗ 4
{7}
н/о н/о +12.6 +3.0 52 +11 +11 1007.7 943.1
11 14.08 СЗ 2
{7}
н/о н/о +13.6 +3.7 51 +13 +13 1007.3 943.1
12 14.08 З 3
{7}
н/о н/о +13.8 +2.7 47 +13 +13 1007.6 943.3
13 14.08 СЗ 3
{6}
н/о н/о +13.4 +2.4 47 +12 +12 1007.7 943.4
14 14.08 СЗ 2
{5}
н/о н/о +13.5 +3.4 50 +13 +13 1007.5 943.2
15 14.08 СЗ 1
{6}
н/о н/о +13.7 +3.9 52 +14 +14 1007.5 943.2
16 14.08 СЗ 3
{6}
н/о н/о +13.8 +4.4 53 +13 +13 1007.7 943.4
17 14.08 СЗ 2
{5}
н/о н/о +12.5 +5.2 61 +12 +12 1008.0 943.4
18 14.08 СЗ 1
{6}
н/о н/о +11.5 +5.7 68 +12 +12 1008.3 943.4 +9.1 +14.9
19 14.08 СЗ 1
{6}
н/о н/о +9.3 +4.9 74 +9 +9 1009.2 943.8
20 14.08 С 1
{2}
н/о н/о +6.3 +4.7 89 +5 +5 1010.1 943.9
21 14.08 СЗ 1
{2}
н/о н/о +4.8 +3.8 93 +3 +3 1010.4 943.8
22 14.08 С 1
{2}
н/о н/о +3.7 +3.0 95 +2 +2 1010.8 943.9
23 14.08 С 1
{3}
н/о н/о +3.3 +2.9 97 +2 +2 1010.8 943.9
00 15.08 С 1
{6}
н/о н/о +2.5 +2.1 97 +1 +1 1011.2 944.0
01 15.08 СЗ 1
{2}
н/о н/о +2.0 +1.8 99 0 0 1011.2 943.8
02 15.08 СЗ 2
{4}
н/о н/о +2.7 +2.5 99 -1 -1 1010.5 943.4
03 15.08 С 2
{3}
н/о н/о +2.0 +1.7 98 -2 -2 1010.4 943.1
04 15.08 СЗ 2
{3}
н/о н/о +1.8 +1.5 98 -2 -2 1010.4 943.1
05 15.08 С 1
{3}
н/о н/о +2.0 +1.7 98 0 0 1010.3 943.0
06 15.08 С 1
{4}
н/о н/о +3.4 +3.2 99 +2 +2 1010.0 943.1 +1.7 +11.7
07 15.08 В 1
{1}
н/о н/о +7.7 +5.6 87 +7 +7 1008.6 942.8
08 15.08 Ю 1
{2}
н/о н/о +11.0 +5.0 66 +11 +11 1007.7 942.8
09 15.08 ЮВ 2
{4}
н/о н/о +13.2 +3.7 52 +13 +13 1006.9 942.6
10 15.08 ЮВ 3
{6}
н/о н/о +14.1 +3.9 50 +13 +13 1006.3 942.2
11 15.08 ЮВ 3
{7}
н/о н/о +13.4 +4.7 56 +12 +12 1006.3 942.1
12 15.08 ЮВ 3
{7}
н/о н/о +13.0 +5.1 59 +12 +12 1006.5 942.2
13 15.08 ЮВ 2
{6}
н/о н/о +11.9 +6.2 68 +11 +11 1006.9 942.3
14 15.08 Ю 3
{6}
н/о н/о +10.8 +8.3 85 +9 +9 1007.2 942.3
15 15.08 Ю 2
{4}
н/о н/о +10.2 +9.0 92 +9 +9 1007.3 942.2
16 15.08 Ю 2
{4}
н/о н/о +10.5 +9.3 92 +9 +9 1006.8 941.8
17 15.08 Ю 2
{4}
н/о н/о +10.4 +9.7 95 +9 +9 1006.6 941.6
18 15.08 Ю 2
{6}
н/о н/о +10.4 +9.9 97 +9 +9 1006.4 941.4 +3.6 +14.5 0.2
19 15.08 Ю 2
{4}
н/о н/о +10.6 +10.0 96 +9 +9 1006.3 941.4 0.5
20 15.08 Ю 2
{3}
н/о н/о +10.8 +10.3 97 +9 +9 1006.0 941.1 0.1
21 15.08 ЮВ 2
{5}
н/о н/о +11.0 +10.6 97 +10 +10 1005.8 941.0 0.1
22 15.08 ЮВ 3
{5}
н/о н/о +11.2 +10.8 97 +9 +9 1006.1 941.3 0.2
23 15.08 ЮВ 1
{4}
н/о н/о +11.3 +10.8 97 +11 +11 1006.0 941.2
00 16.08 ЮВ 2
{5}
н/о н/о +11.4 +10.9 97 +10 +10 1005.7 941.0
01 16.08 В 2
{4}
н/о н/о +11.6 +11.1 97 +10 +10 1005.4 940.8
02 16.08 В 2
{4}
н/о н/о +11.7 +11.2 97 +10 +10 1005.3 940.8
03 16.08 Ю 3
{4}
н/о н/о +11.8 +11.4 97 +10 +10 1005.5 940.9 0.3
04 16.08 Ю 2
{3}
н/о н/о +11.8 +11.5 98 +11 +11 1005.6 941.0
05 16.08 ЮВ 1
{2}
н/о н/о +12.1 +11.8 98 +12 +12 1005.7 941.2
06 16.08 В 1
{4}
н/о н/о +12.5 +11.6 94 +12 +12 1005.7 941.3 +10.3 +12.5 1
07 16.08 ЮВ 1
{2}
н/о н/о +12.7 +11.8 94 +13 +13 1006.0 941.6
08 16.08 Ю 1
{2}
н/о н/о +14.6 +11.7 83 +15 +15 1005.7 941.7
09 16.08 Ю 1
{3}
н/о н/о +16.2 +11.0 71 +17 +17 1005.3 941.7
10 16.08 Ю 1
{2}
н/о н/о +15.9 +11.2 74 +17 +17 1005.6 942.0
11 16.08 СЗ 1
{3}
н/о н/о +17.6 +11.1 66 +19 +19 1005.0 941.8
12 16.08 Ю 2
{4}
н/о н/о +19.2 +9.8 54 +21 +21 комфорт 1004.5 941.7
13 16.08 Ю 2
{6}
н/о н/о +19.3 +9.1 52 +21 +21 комфорт 1004.2 941.4
14 16.08 Ю 2
{5}
н/о н/о +19.2 +9.0 52 +21 +21 комфорт 1003.9 941.1
15 16.08 Ю 3
{5}
н/о н/о +18.9 +7.2 47 +20 +20 1003.8 941.0
16 16.08 ЮВ 3
{6}
н/о н/о +18.5 +8.1 51 +19 +19 1003.7 940.7
17 16.08 ЮВ 2
{6}
н/о н/о +17.2 +4.0 41 +18 +18 1003.9 940.7
18 16.08 В 1
{6}
н/о н/о +15.2 +4.0 47 +16 +16 1004.1 940.4 +12.4 +20.1
19 16.08 ЮВ 2
{4}
н/о н/о +14.2 +6.5 60 +14 +14 1004.5 940.5
20 16.08 Ю 2
{5}
н/о н/о +13.9 +6.9 63 +14 +14 1005.2 941.1
21 16.08 Ю 2
{6}
н/о н/о +12.8 +5.6 62 +12 +12 1005.8 941.5
22 16.08 Ю 1
{5}
н/о н/о +12.1 +7.1 71 +12 +12 1005.6 941.1
23 16.08 В 2
{5}
н/о н/о +11.5 +7.5 76 +10 +10 1005.2 940.5
00 17.08 ЮВ 3
{6}
н/о н/о +10.7 +9.0 89 +9 +9 1005.1 940.3
01 17.08 В 2
{5}
н/о н/о +10.3 +8.6 89 +9 +9 1004.2 939.4
02 17.08 ЮВ 2
{5}
н/о н/о +10.4 +9.1 92 +9 +9 1003.4 938.6 0.2
03 17.08 ЮВ 2
{5}
н/о н/о +10.3 +9.5 95 +9 +9 1002.3 937.6 0.8
04 17.08 ЮВ 2
{5}
н/о н/о +10.4 +9.7 95 +9 +9 1001.1 936.4 1
05 17.08 ЮВ 5
{8}
н/о н/о +11.1 +10.4 95 +8 +8 999.4 935.1 1
06 17.08 ЮВ 5
{9}
н/о н/о +11.8 +10.9 94 +9 +9 998.5 934.4 +10.1 +15.2 5
07 17.08 ЮВ 6
{12}
н/о н/о +12.2 +11.2 94 +9 +9 997.8 933.8 2
08 17.08 ЮВ 4
{11}
н/о н/о +12.4 +11.4 94 +10 +10 997.3 933.3 1
09 17.08 ЮВ 4
{8}
н/о н/о +12.5 +11.7 95 +10 +10 996.6 932.7 0.9
10 17.08 ЮВ 4
{9}
н/о н/о +13.2 +12.3 94 +11 +11 995.9 932.3 0.9
11 17.08 В 3
{8}
н/о н/о +13.8 +12.9 94 +13 +13 995.7 932.2 0.3
12 17.08 ЮВ 4
{12}
н/о н/о +16.6 +13.1 80 +16 +16 995.1 932.2 0.7
13 17.08 Ю 4
{9}
н/о н/о +17.7 +11.7 68 +17 +17 994.9 932.3
14 17.08 ЮВ 4
{10}
н/о н/о +18.0 +11.3 65 +18 +18 994.8 932.3
15 17.08 Ю 3
{9}
н/о н/о +13.6 +11.2 85 +12 +12 996.7 933.1 2
16 17.08 Ю 2
{5}
н/о н/о +15.2 +10.7 74 +15 +15 996.2 933.0
17 17.08 ЮВ 2
{6}
н/о н/о +16.1 +9.9 67 +16 +16 995.9 933.0
18 17.08 Ю 2
{10}
н/о н/о +15.3 +9.5 68 +15 +15 996.5 933.3 +11.9 +18.6 8
19 17.08 Ю 1
{5}
н/о н/о +14.1 +9.2 72 +15 +15 997.1 933.6
20 17.08 СВ 1
{4}
н/о н/о +12.2 +9.1 81 +12 +12 998.2 934.1
21 17.08 ЮВ 2
{6}
н/о н/о +12.8 +9.3 79 +12 +12 998.3 934.4
22 17.08 ЮЗ 1
{7}
н/о н/о +11.1 +8.7 85 +11 +11 999.2 934.8
23 17.08 С 1
{3}
н/о н/о +8.1 +7.3 95 +7 +7 1000.7 935.6
00 18.08 С 1
{7}
н/о н/о +6.6 +5.7 94 +5 +5 1001.5 936.0
01 18.08 С 1
{2}
н/о н/о +5.6 +5.3 98 +4 +4 1002.3 936.5
02 18.08 С 2
{3}
н/о н/о +5.4 +5.0 97 +3 +3 1002.8 936.8
03 18.08 С 2
{3}
н/о н/о +4.2 +4.0 99 +1 +1 1003.0 936.8
04 18.08 С 1
{2}
н/о н/о +3.6 +3.5 99 +2 +2 1003.6 937.2
05 18.08 С 1
{2}
н/о н/о +3.9 +3.8 99 +2 +2 1003.6 937.3
06 18.08 штиль 0
{3}
н/о н/о +5.7 +5.7 100 +4 +4 1003.5 937.6 +3.5 +15.3
07 18.08 штиль 0
{1}
н/о н/о +7.5 +6.9 96 +6 +6 1002.6 937.2
08 18.08 ЮВ 1
{3}
н/о н/о +10.8 +8.2 84 +10 +10 1001.8 937.3
09 18.08 ЮВ 3
{6}
н/о н/о +13.8 +7.6 66 +13 +13 1001.1 937.3
10 18.08 ЮВ 2
{7}
н/о н/о +14.4 +7.9 65 +14 +14 1000.4 936.7
11 18.08 ЮВ 3
{7}
н/о н/о +14.4 +6.9 61 +14 +14 1000.2 936.5
12 18.08 ЮВ 3
{7}
н/о н/о +14.2 +6.2 59 +13 +13 1000.0 936.3
13 18.08 ЮВ 3
{6}
н/о н/о +14.2 +5.7 57 +13 +13 1000.4 936.7
14 18.08 ЮВ 2
{6}
н/о н/о +13.6 +6.5 62 +13 +13 1000.1 936.3
15 18.08 В 2
{7}
н/о н/о +12.4 +9.5 82 +11 +11 1000.5 936.4 0.3
16 18.08 ЮВ 1
{5}
н/о н/о +11.1 +9.5 90 +11 +11 1000.5 936.0 2
17 18.08 В 2
{6}
н/о н/о +11.1 +9.6 90 +10 +10 1000.2 935.8 0.9
18 18.08 ЮВ 1
{7}
н/о н/о +10.9 +9.9 94 +10 +10 999.8 935.4 +5.7 +15.1 3
19 18.08 ЮВ 2
{4}
н/о н/о +10.8 +10.1 95 +9 +9 999.6 935.2 0.2
20 18.08 ЮВ 3
{6}
н/о н/о +10.2 +9.0 92 +8 +8 1000.1 935.5 3
21 18.08 В 1
{6}
н/о н/о +9.6 +8.8 95 +9 +9 1000.3 935.5 2
22 18.08 Ю 2
{4}
н/о н/о +8.9 +8.5 97 +7 +7 1000.5 935.6
23 18.08 С 1
{4}
н/о н/о +7.5 +7.1 97 +6 +6 1001.0 935.6
00 19.08 С 1
{6}
н/о н/о +7.6 +7.4 99 +7 +7 1001.0 935.7
01 19.08 СЗ 1
{1}
н/о н/о +7.0 +6.9 99 +6 +6 1001.2 935.7
02 19.08 штиль 0
{2}
н/о н/о +7.4 +7.4 100 +6 +6 1000.8 935.5
03 19.08 ЮВ 1
{4}
н/о н/о +8.4 +8.4 100 +7 +7 1000.8 935.7
04 19.08 В 3
{6}
н/о н/о +9.1 +8.2 94 +7 +7 1000.3 935.4 0.5
05 19.08 В 2
{5}
н/о н/о +9.2 +8.5 95 +7 +7 1000.4 935.5 0.2
06 19.08 В 3
{6}
н/о н/о +9.7 +8.5 92 +7 +7 1000.4 935.6 +6.8 +10.9 6
07 19.08 В 3
{5}
н/о н/о +10.0 +9.0 93 +8 +8 1000.6 935.9
08 19.08 ЮВ 2
{6}
н/о н/о +12.1 +9.2 82 +11 +11 1000.3 936.1
09 19.08 ЮВ 3
{7}
н/о н/о +11.7 +9.4 86 +10 +10 1000.8 936.5 0.1
10 19.08 ЮВ 3
{6}
н/о н/о +12.1 +9.4 84 +10 +10 1001.2 937.0 0.4
11 19.08 В 1
{7}
н/о н/о +11.9 +9.8 87 +12 +12 1001.9 937.5 0.1
12 19.08 Ю 1
{7}
н/о н/о +13.4 +9.6 78 +14 +14 1002.1 938.1 0.2
13 19.08 ЮЗ 2
{5}
н/о н/о +13.4 +9.9 79 +13 +13 1002.7 938.7
14 19.08 ЮЗ 1
{6}
н/о н/о +14.2 +8.1 67 +15 +15 1003.0 939.2
15 19.08 ЮЗ 1
{6}
н/о н/о +13.9 +8.1 68 +14 +14 1003.6 939.7
16 19.08 ЮЗ 1
{5}
н/о н/о +14.8 +8.2 65 +15 +15 1004.0 940.2
17 19.08 Ю 2
{5}
н/о н/о +12.9 +7.3 69 +12 +12 1005.2 940.9
18 19.08 Ю 1
{6}
н/о н/о +12.4 +7.5 72 +13 +13 1005.7 941.2 +9.7 +15.2 0.8
19 19.08 СВ 1
{3}
н/о н/о +11.5 +8.4 81 +11 +11 1006.4 941.7
20 19.08 штиль 0
{1}
н/о н/о +10.6 +9.1 90 +10 +10 1007.4 942.4
21 19.08 Ю 1
{2}
н/о н/о +10.3 +8.9 91 +10 +10 1007.7 942.6
22 19.08 штиль 0
{2}
н/о н/о +7.9 +7.5 97 +7 +7 1008.7 943.0 0.1
23 19.08 СЗ 1
{2}
н/о н/о +6.7 +6.5 99 +5 +5 1009.3 943.2
00 20.08 СЗ 1
{3}
н/о н/о +6.4 +6.3 99 +5 +5 1009.6 943.5
01 20.08 СЗ 1
{3}
н/о н/о +5.3 +5.1 99 +4 +4 1010.2 943.8
02 20.08 С 1
{2}
н/о н/о +5.2 +5.1 99 +4 +4 1010.5 944.0
03 20.08 С 1
{2}
н/о н/о +5.2 +5.1 99 +4 +4 1010.7 944.2
04 20.08 С 1
{2}
н/о н/о +5.5 +5.5 100 +4 +4 1010.9 944.5
05 20.08 штиль 0
{2}
н/о н/о +5.4 +5.3 99 +4 +4 1011.4 944.9
06 20.08 С 1
{3}
н/о н/о +6.9 +6.9 100 +6 +6 1011.5 945.4 +4.8 +12.7 0.1
07 20.08 Ю 1
{3}
н/о н/о +10.4 +9.9 97 +10 +10 1010.9 945.6
08 20.08 ЮВ 2
{5}
н/о н/о +11.4 +8.6 83 +10 +10 1011.3 946.3
09 20.08 ЮВ 2
{4}
н/о н/о +14.1 +8.1 67 +14 +14 1010.7 946.3
10 20.08 Ю 3
{5}
н/о н/о +14.0 +6.9 62 +13 +13 1011.2 946.8
11 20.08 Ю 3
{8}
н/о н/о +14.0 +7.4 64 +13 +13 1011.4 947.0
12 20.08 ЮВ 3
{8}
н/о н/о +14.8 +7.6 62 +14 +14 1011.3 947.1
13 20.08 Ю 2
{8}
н/о н/о +15.0 +8.1 63 +15 +15 1011.7 947.5
14 20.08 ЮЗ 1
{5}
н/о н/о +14.6 +7.7 63 +15 +15 1012.0 947.6
15 20.08 З 2
{5}
н/о н/о +14.9 +7.7 62 +15 +15 1012.3 948.0
16 20.08 ЮЗ 2
{6}
н/о н/о +14.2 +7.3 63 +14 +14 1012.9 948.4
17 20.08 СЗ 2
{6}
н/о н/о +13.5 +7.3 66 +13 +13 1013.7 949.0
18 20.08 Ю 1
{8}
н/о н/о +12.2 +6.7 69 +12 +12 1014.5 949.5 +6.9 +15.7
19 20.08 ЮВ 1
{1}
н/о н/о +10.2 +7.0 81 +10 +10 1015.7 950.1
20 20.08 С 1
{2}
н/о н/о +9.2 +7.5 89 +9 +9 1016.5 950.5
21 20.08 СЗ 1
{2}
н/о н/о +8.9 +7.4 90 +8 +8 1016.8 950.8
22 20.08 С 1
{2}
н/о н/о +7.8 +6.9 94 +7 +7 1017.6 951.3
23 20.08 С 1
{2}
н/о н/о +5.8 +5.4 97 +4 +4 1018.6 951.7
00 21.08 штиль 0
{2}
н/о н/о +4.9 +4.6 98 +4 +4 1019.2 952.0
01 21.08 штиль 0
{2}
н/о н/о +4.4 +4.0 97 +3 +3 1019.8 952.5
02 21.08 СЗ 1
{2}
н/о н/о +3.9 +3.7 99 +2 +2 1020.3 952.8
03 21.08 С 1
{3}
н/о н/о +4.4 +4.1 98 +3 +3 1020.5 953.1
05 21.08 СЗ 1
{2}
н/о н/о +5.4 +5.3 99 +4 +4 1021.1 954.0
06 21.08 штиль 0
{3}
н/о н/о +7.3 +6.4 94 +6 +6 1021.0 954.3 +3.7 +12.1
07 21.08 СЗ 2
{4}
н/о н/о +11.1 +6.6 74 +10 +10 1020.3 954.6
08 21.08 З 3
{6}
н/о н/о +11.3 +3.5 59 +10 +10 1020.5 954.8

 

Местоположение метеостанции Хойдалсмо (Норвегия): широта 59.50 долгота 8.20 высота над уровнем моря 560 м.

В архиве по умолчанию представлена погода в Хойдалсмо за последнюю неделю. Архивные данные за месяц целиком и за предыдущие месяцы, начиная с января 2011 года, Вы можете получить, выбрав интересующий диапазон дат из раскрывающегося списка и нажав кнопку "Ввод!".


*Определитесь, кто Вы:
робот инопланетянин человек

Внимание! Время в таблицах - всемирное. Для получения местного времени необходимо прибавить поправку, которая равна 1 ч.

Смотрите также архив погоды в соседних городах и на ближайших метеорологических станциях:

Погода в Мосстранде (Норвегия) (37 км)
Погода на Гаустатоппене (Норвегия) (47 км)
Погода в Ховдене (Норвегия) (47 км)
Погода в Валле (Норвегия) (51 км)
Погода в Твейтсунде (Норвегия) (55 км)
Погода в Вагсли (Норвегия) (55 км)
Погода во Гварве (Норвегия) (59 км)
Погода в Хаукелисетере (Норвегия) (66 км)
Погода в Бляшу (Норвегия) (77 км)
Погода в Веггли (Норвегия) (81 км)

Пояснения к столбцам:

Ветер - указаны скорость ветра в м/с - средняя за 10 мин, порывы в срок и между сроками (в фигурных скобках) и направление, откуда дует ветер: С - северный, СВ - северо-восточный, В - восточный, ЮВ - юго-восточный, Ю - южный, ЮЗ - юго-западный, З - западный, СЗ - северо-западный.
Видимость - горизонтальная дальность видимости в метрах или километрах. При видимости от 1 до 10 км при отсутствии осадков обычно наблюдается дымка, при ухудшении видимости до 1 км и менее - туман. В сухую погоду видимость может ухудшаться дымом, пылью или мглою.
Явления - указаны атмосферные явления, наблюдавшиеся в срок или в последний час перед сроком; фигурными скобками обозначены явления, наблюдавшиеся между сроками (за 1-3 часа до срока); квадратными скобками обозначены град или гололедные отложения с указанием их диаметра в мм.
Облачность - указаны через наклонную черту общая и нижняя облачность в баллах и высота нижней границы облаков в метрах; квадратными скобками обозначены формы облаков: Ci - перистые, Cs - перисто-слоистые, Cc - перисто-кучевые, Ac - высококучевые, As - высокослоистые, Sc - слоисто-кучевые, Ns - слоисто-дождевые, Cu - кучевые, Cb - кучево-дождевые. Подробнее классификацию облаков см. в Атласе облаков (PDF).
T - Температура воздуха - температура, измеренная на высоте 2 м над землей.
Td - Температура точки росы - температура, при понижении до которой содержащийся в воздухе водяной пар достигнет насыщения.
f - Относительная влажность воздуха - влажноcть воздуха, измеренная на высоте 2 м над землей.
Te - Эффективная температура - температура, которую ощущает одетый по сезону человек в тени. Характеристика душности погоды. При расчете учитывается влияние влажности воздуха и скорости ветра на теплоощущения человека.
Tes - Эффективная температура на солнце - температура, которую ощущает человек, с поправкой на солнечный нагрев. Характеристика знойности погоды. Зависит от высоты солнца над горизонтом, облачности и скорости ветра. Ночью, в пасмурную погоду, а также при ветре 12 м/с и более поправка равна нулю.
P - Атмосферное давление - приведенное к уровню моря атмосферное давление.
Po - Атмосферное давление - измеренное на уровне метеостанции атмосферное давление.
Tmin - Минимальная температура - минимум температуры воздуха на высоте 2 м над землей.
Tmax - Максимальная температура - максимум температуры воздуха на высоте 2 м над землей.
R - Количество осадков - Количество выпавших осадков за период времени, мм. При наведении курсора мыши на число - период времени, за который выпало указанное количество осадков.
R24 - Количество осадков - Количество выпавших осадков за 24 часа, мм.
S - Снежный покров - Высота снежного покрова, см. При наведении курсора мыши на число - состояние снежного покрова и степень покрытия местности в баллах.